This is the latest recevied weather packets stored in our database for station/object KB0BS-13. If no packets are shown the sender has not sent any weather packets the latest 10 day(s).
| Time | Temp. | Humidity | Pressure | Rain* | Wind** | Luminosity | Snow |
|---|---|---|---|---|---|---|---|
| 1777955518 | 7.22° C | 71% | 999.6 hPa | 0 mm | - | 0 W/m² | - |
| 1777955214 | 7.22° C | 72% | 999.6 hPa | 0 mm | - | 0 W/m² | - |
| 1777954912 | 7.22° C | 71% | 999.7 hPa | 0 mm | - | 0 W/m² | - |
| 1777954608 | 7.22° C | 74% | 999.6 hPa | 0 mm | - | 0 W/m² | - |
| 1777954306 | 7.22° C | 73% | 999.9 hPa | 0 mm | - | 0 W/m² | - |
| 1777954002 | 7.22° C | 70% | 999.7 hPa | 0 mm | - | 0 W/m² | - |
| 1777953700 | 7.22° C | 74% | 999.7 hPa | 0 mm | - | 0 W/m² | - |
| 1777953396 | 7.22° C | 74% | 999.4 hPa | 0 mm | - | 0 W/m² | - |
| 1777953092 | 7.22° C | 75% | 999.6 hPa | 0 mm | - | 0 W/m² | - |
| 1777952789 | 7.22° C | 75% | 999.5 hPa | 0 mm | - | 0 W/m² | - |
| 1777952486 | 7.78° C | 75% | 999.6 hPa | 0 mm | - | 0 W/m² | - |
| 1777952182 | 7.22° C | 76% | 999.5 hPa | 0 mm | - | 0 W/m² | - |
| 1777951881 | 7.22° C | 77% | 999.3 hPa | 0 mm | - | 0 W/m² | - |
| 1777951579 | 7.22° C | 79% | 999.4 hPa | 0 mm | - | 0 W/m² | - |
| 1777951275 | 7.22° C | 79% | 999.5 hPa | 0 mm | - | 0 W/m² | - |
| 1777950972 | 7.22° C | 80% | 999.2 hPa | 0 mm | - | 0 W/m² | - |
| 1777950668 | 7.22° C | 80% | 999.1 hPa | 0 mm | - | 0 W/m² | - |
| 1777950365 | 7.22° C | 82% | 999.3 hPa | 0 mm | - | 0 W/m² | - |
| 1777950061 | 7.22° C | 84% | 999.3 hPa | 0 mm | - | 0 W/m² | - |
| 1777949757 | 7.22° C | 86% | 999.2 hPa | 0 mm | - | 0 W/m² | - |
| 1777949456 | 7.22° C | 86% | 999.1 hPa | 0 mm | - | 0 W/m² | - |
| 1777949153 | 7.22° C | 86% | 999.1 hPa | 0 mm | - | 0 W/m² | - |
| 1777948850 | 7.22° C | 87% | 999 hPa | 0 mm | - | 0 W/m² | - |
| 1777948547 | 7.22° C | 87% | 999 hPa | 0 mm | - | 0 W/m² | - |
| 1777948245 | 6.67° C | 88% | 999.2 hPa | 0 mm | - | 0 W/m² | - |
* Rain latest hour (hover to see other rain measurements)
** Current wind speed in m/s (hover to see current wind gust speed)